Flag for U.S.A. Weather past 2 weeks in St. Paul, Minnesota, U.S.A.

Now
58 °F

Clear.


Feels Like: 55 °F
Forecast: 57 / 72 °F
Wind: 13 mph from South

Location: St. Paul Downtown Holman Field

Current Time: Sep 19, 2014 at 3:11:06 AM

Latest Report: Sep 19, 2014 at 1:53 AM


Visibility: 10 mi

Pressure: 29.98 "Hg

Humidity: 90%

Dew point: 55 °F

Location of St. PaulLocation

Historic Weather in St. Paul — Graph

°F

St. Paul temperature yesterday

Maximum temperature yesterday: 74 °F (at 3:53 PM)
Minimum temperature yesterday: 48 °F (at 5:53 AM)
Average temperature yesterday: 59 °F

Past Weeks' High & Low Weather Summary

 TemperatureHumidityPressure
High83 °F (Sep 4, 1:53 PM)100% (Sep 13, 6:53 AM)30.45 "Hg (Sep 13, 6:53 AM)
Low37 °F (Sep 13, 6:53 AM)36% (Sep 7, 2:53 PM)29.62 "Hg (Sep 4, 4:53 AM)
Average59 °F73%30.07 "Hg
* Reported Sep 4 1:53 AM — Sep 19 1:53 AM, St. Paul, Weather by CustomWeather, © 2014

Note: Actual official high and low records may vary slightly from our data, if they occured in-between our weather recording intervals... More about our weather records

Advertising

St. Paul weather history for previous 24 hours

 ConditionsComfort  
Time TempWeatherWind HumidityBarometerVisibility
1:53 AM
Sep 19
58 °FClear.13 mph90%29.98 "Hg10 mi
12:53 AM59 °FClear.10 mph87%29.99 "Hg10 mi
11:53 PM
Sep 18
60 °FClear.12 mph86%30.00 "Hg10 mi
10:53 PM60 °FClear.10 mph86%30.00 "Hg10 mi
9:53 PM62 °FClear.10 mph83%30.00 "Hg10 mi
8:53 PM63 °FClear.13 mph81%30.01 "Hg10 mi
7:53 PM64 °FSunny.9 mph78%30.00 "Hg10 mi
6:53 PM67 °FSunny.9 mph71%29.99 "Hg10 mi
5:53 PM70 °FPassing clouds.9 mph64%29.99 "Hg10 mi
4:53 PM72 °FPassing clouds.8 mph57%29.99 "Hg10 mi
3:53 PM74 °FPassing clouds.6 mph56%30.01 "Hg10 mi
2:53 PM72 °FSunny.6 mph59%30.03 "Hg10 mi
1:53 PM69 °FSunny.3 mph66%30.06 "Hg10 mi
12:53 PM66 °FSunny.5 mph70%30.09 "Hg10 mi
11:53 AM58 °FPartly sunny.5 mph84%30.11 "Hg10 mi
10:53 AM55 °FLow clouds.6 mph90%30.11 "Hg10 mi
9:53 AM52 °FLow clouds.6 mph93%30.12 "Hg9 mi
8:53 AM50 °FLow clouds.7 mph93%30.11 "Hg10 mi
7:53 AM49 °FClear.5 mph90%30.10 "Hg10 mi
6:53 AM48 °FClear.5 mph93%30.09 "Hg10 mi
5:53 AM48 °FClear.No wind89%30.08 "Hg10 mi
4:53 AM49 °FClear.No wind90%30.07 "Hg10 mi
3:53 AM49 °FClear.5 mph93%30.07 "Hg10 mi
Weather by CustomWeather, © 2014

See weather overviewHow to use our weather pages